TimeEST,TemperatureF,Dew PointF,Humidity,Sea Level PressureIn,VisibilityMPH,Wind Direction,Wind SpeedMPH,Gust SpeedMPH,PrecipitationIn,Events,Conditions,WindDirDegrees,DateUTC
1:15 AM,44.6,33.8,66,30.12,10.0,WSW,5.8,-,N/A,,Clear,250,2011-11-26 06:15:00
5:45 AM,46.4,30.2,53,30.17,10.0,NW,6.9,-,N/A,,Clear,320,2011-11-26 10:45:00
7:45 AM,42.8,28.4,57,30.20,10.0,Calm,Calm,-,N/A,,Clear,0,2011-11-26 12:45:00
8:45 AM,50.0,33.8,54,30.21,10.0,Calm,Calm,-,N/A,,Clear,0,2011-11-26 13:45:00
10:45 AM,55.4,33.8,44,30.22,10.0,Calm,Calm,-,N/A,,Clear,0,2011-11-26 15:45:00
11:45 AM,57.2,33.8,41,30.20,10.0,Calm,Calm,-,N/A,,Clear,0,2011-11-26 16:45:00
12:55 PM,62.6,35.6,37,30.19,10.0,West,4.6,-,N/A,,Clear,270,2011-11-26 17:55:00
1:45 PM,62.6,33.8,34,30.18,10.0,West,5.8,-,N/A,,Clear,270,2011-11-26 18:45:00
2:55 PM,60.8,33.8,36,30.18,10.0,West,4.6,-,N/A,,Clear,270,2011-11-26 19:55:00
3:45 PM,59.0,33.8,39,30.19,10.0,West,3.5,-,N/A,,Clear,270,2011-11-26 20:45:00
4:45 PM,55.4,32.0,41,30.21,10.0,West,3.5,-,N/A,,Clear,260,2011-11-26 21:45:00
5:45 PM,53.6,32.0,44,30.20,10.0,Calm,Calm,-,N/A,,Clear,0,2011-11-26 22:45:00
6:45 PM,51.8,30.2,44,30.21,10.0,SSW,3.5,-,N/A,,Clear,210,2011-11-26 23:45:00
7:45 PM,51.8,32.0,47,30.22,10.0,SW,3.5,-,N/A,,Clear,230,2011-11-27 00:45:00
8:55 PM,51.8,30.2,44,30.22,10.0,SW,3.5,-,N/A,,Clear,220,2011-11-27 01:55:00
9:15 PM,51.8,30.2,44,30.23,10.0,SW,3.5,-,N/A,,Clear,230,2011-11-27 02:15:00
9:35 PM,51.8,30.2,44,30.23,10.0,SW,4.6,-,N/A,,Clear,230,2011-11-27 02:35:00
10:15 PM,46.4,30.2,53,30.21,10.0,Calm,Calm,-,N/A,,Clear,0,2011-11-27 03:15:00
10:35 PM,44.6,30.2,57,30.21,10.0,Calm,Calm,-,N/A,,Clear,0,2011-11-27 03:35:00
11:35 PM,46.4,30.2,53,30.21,10.0,Calm,Calm,-,N/A,,Clear,0,2011-11-27 04:35:00
11:55 PM,41.0,28.4,61,30.21,10.0,Calm,Calm,-,N/A,,Clear,0,2011-11-27 04:55:00